Temp
-7 -7 -8 -8 -7 -7 -8 -8 -7 -7 -7 -6 -6 -7 -6 -6 -6 -6 -6 -6 -6 -6 -6 -6 -6 -6 -6 -6 -6 -6 -6 -6 -6 -6 -6 -6 -6 -6 -6 -6 -6 -6 -6
-6 -6 -7 -8 -7 -7 -7 -7 -8 -7 -7 -7 -7 -7 -6 -6 -6 -6 -6 -6 -6 -6 -6 -6 -6 -6 -6 -6 -6 -6 -6 -6 -5 -6 -6 -6 -6 -6 -6 -6 -6 -5 -5
-6 -6 -6 -7 -8 -7 -7 -6 -7 -7 -7 -7 -7 -6 -6 -6 -7 -6 -6 -6 -6 -6 -6 -6 -6 -7 -6 -6 -6 -6 -6 -6 -6 -6 -5 -6 -6 -6 -6 -6 -6 -6 -6
-7 -6 -7 -7 -7 -7 -7 -6 -6 -6 -7 -7 -7 -7 -6 -6 -7 -6 -6 -6 -7 -6 -6 -6 -6 -6 -7 -7 -7 -6 -6 -6 -6 -6 -6 -6 -6 -5 -6 -6 -6 -6 -6
-7 -7 -7 -6 -6 -6 -7 -7 -6 -6 -7 -7 -7 -7 -7 -7 -7 -7 -7 -7 -7 -7 -7 -7 -7 -7 -6 -6 -6 -6 -6 -6 -6 -6 -6 -6 -5 -6 -5 -5 -6 -6 -6
-7 -8 -7 -5 -7 -6 -6 -6 -7 -6 -6 -6 -7 -7 -8 -7 -7 -7 -7 -7 -7 -7 -7 -7 -7 -7 -6 -6 -6 -7 -6 -6 -6 -7 -6 -7 -6 -6 -6 -5 -5 -6 -6
-7 -8 -7 -7 -7 -6 -6 -6 -6 -7 -6 -6 -6 -6 -7 -7 -7 -7 -7 -7 -7 -7 -7 -7 -7 -7 -7 -7 -6 -6 -6 -6 -6 -7 -7 -7 -6 -6 -6 -6 -5 -6 -6
-6 -7 -7 -7 -5 -7 -6 -6 -7 -7 -7 -6 -6 -6 -7 -7 -7 -7 -7 -7 -7 -7 -7 -7 -7 -7 -7 -7 -7 -7 -6 -6 -6 -6 -6 -6 -6 -6 -7 -6 -6 -6 -6
-7 -7 -7 -7 -7 -6 -6 -6 -6 -7 -7 -7 -7 -7 -7 -7 -7 -7 -7 -7 -7 -7 -7 -7 -7 -7 -7 -6 -7 -7 -6 -7 -6 -6 -6 -7 -7 -7 -7 -7 -7 -7 -7
-6 -6 -6 -6 -7 -6 -6 -6 -6 -6 -7 -6 -7 -7 -7 -7 -7 -7 -7 -7 -7 -7 -7 -7 -7 -7 -7 -7 -7 -7 -6 -6 -6 -7 -7 -7 -7 -7 -7 -7 -7 -9 -9
-5 -5 -5 -4 -5 -6 -6 -6 -6 -7 -7 -7 -7 -7 -7 -7 -8 -8 -8 -7 -7 -7 -7 -7 -7 -7 -7 -7 -7 -7 -7 -7 -7 -7 -7 -8 -8 -8 -8 -8 -8 -8 -8
-6 -5 -4 -4 -5 -5 -5 -6 -6 -6 -7 -7 -7 -7 -7 -7 -7 -7 -7 -7 -7 -7 -7 -7 -7 -8 -7 -8 -8 -7 -8 -8 -8 -9 -9 -9 -9 -10 -10 -10 -10 -10 -10
-5 -7 -6 -7 -7 -6 -7 -6 -6 -7 -7 -7 -7 -7 -7 -7 -7 -7 -7 -7 -7 -8 -7 -7 -8 -8 -8 -9 -9 -9 -10 -10 -10 -10 -10 -10 -11 -10 -10 -10 -10 -10 -10
-7 -7 -6 -7 -7 -6 -7 -7 -7 -6 -7 -7 -7 -7 -7 -7 -7 -7 -7 -7 -8 -8 -8 -8 -8 -9 -9 -10 -10 -11 -11 -11 -11 -11 -11 -11 -10 -11 -11 -11 -11 -11 -11
-9 -8 -8 -8 -7 -7 -7 -7 -7 -7 -7 -7 -7 -7 -7 -7 -7 -8 -8 -9 -9 -10 -11 -11 -11 -11 -12 -12 -12 -11 -11 -11 -11 -12 -11 -11 -11 -11 -11 -12 -12 -12 -12
-10 -9 -9 -8 -8 -8 -8 -8 -7 -7 -8 -8 -8 -8 -8 -8 -9 -10 -11 -11 -12 -13 -13 -12 -12 -11 -11 -11 -11 -11 -11 -11 -11 -11 -12 -12 -12 -12 -12 -12 -12 -12 -12
-10 -10 -10 -9 -9 -8 -9 -9 -9 -10 -10 -10 -10 -11 -11 -12 -12 -12 -13 -12 -12 -12 -12 -12 -12 -11 -11 -11 -11 -11 -12 -12 -12 -12 -12 -12 -12 -13 -12 -12 -12 -13 -14
-11 -11 -11 -11 -11 -10 -11 -10 -10 -11 -11 -11 -12 -12 -13 -13 -12 -12 -12 -12 -12 -12 -12 -11 -11 -11 -11 -11 -12 -12 -12 -12 -12 -12 -13 -13 -13 -13 -13 -13 -14 -15 -16
-12 -12 -13 -12 -12 -12 -12 -11 -11 -11 -11 -11 -11 -11 -12 -12 -12 -12 -12 -12 -12 -11 -11 -12 -12 -12 -12 -12 -12 -12 -12 -12 -12 -12 -13 -13 -13 -13 -14 -16 -16 -17 -17
-13 -13 -13 -13 -12 -12 -11 -11 -11 -11 -11 -11 -11 -12 -12 -12 -12 -12 -12 -12 -12 -12 -12 -12 -12 -12 -12 -12 -12 -12 -12 -13 -13 -13 -14 -14 -15 -16 -17 -17 -17 -18 -18
-13 -12 -12 -12 -12 -12 -12 -12 -12 -12 -12 -12 -12 -12 -12 -12 -12 -12 -12 -12 -12 -12 -12 -12 -12 -12 -12 -13 -13 -13 -13 -14 -14 -15 -15 -16 -16 -17 -17 -18 -18 -19 -19
-13 -12 -12 -12 -13 -13 -13 -12 -12 -12 -12 -12 -12 -12 -12 -12 -12 -12 -12 -12 -12 -13 -13 -13 -13 -13 -13 -13 -13 -13 -13 -14 -15 -16 -16 -17 -17 -18 -18 -19 -20 -20 -21
-13 -13 -13 -13 -13 -13 -13 -12 -12 -13 -13 -13 -13 -12 -13 -12 -12 -12 -12 -13 -13 -13 -13 -13 -13 -13 -13 -13 -13 -14 -15 -16 -17 -17 -18 -18 -19 -19 -19 -20 -20 -21 -21
-13 -14 -14 -13 -13 -13 -13 -13 -13 -13 -13 -13 -13 -13 -12 -12 -12 -12 -13 -13 -13 -13 -13 -13 -13 -13 -13 -14 -15 -16 -16 -17 -18 -18 -19 -20 -20 -20 -20 -20 -21 -21 -21
-13 -14 -14 -13 -13 -13 -13 -13 -13 -13 -13 -13 -13 -13 -13 -13 -13 -12 -13 -13 -13 -13 -14 -14 -14 -15 -15 -15 -16 -17 -17 -18 -19 -20 -20 -20 -21 -21 -21 -21 -21 -21 -22
-13 -13 -14 -13 -14 -14 -13 -13 -13 -13 -13 -13 -13 -13 -13 -13 -13 -13 -13 -13 -14 -14 -15 -15 -15 -16 -16 -16 -17 -18 -18 -19 -20 -20 -21 -21 -21 -21 -21 -21 -21 -22 -22
Height
5881 5883 5885 5888 5889 5892 5894 5896 5900 5903 5906 5908 5909 5911 5913 5914 5916 5917 5919 5921 5922 5922 5922 5922 5921 5921 5922 5921 5919 5918 5917 5915 5914 5914 5913 5912 5911 5910 5908 5906 5905 5903 5901
5865 5877 5880 5883 5887 5890 5892 5894 5896 5897 5900 5903 5906 5907 5909 5910 5911 5913 5915 5916 5917 5918 5918 5917 5917 5917 5916 5916 5915 5914 5912 5911 5911 5910 5909 5908 5907 5907 5906 5905 5902 5899 5897
5870 5872 5874 5876 5880 5884 5887 5889 5892 5893 5895 5897 5901 5903 5905 5906 5907 5909 5911 5912 5912 5913 5914 5914 5913 5913 5912 5911 5910 5910 5909 5907 5906 5906 5905 5905 5903 5902 5901 5899 5897 5895 5893
5859 5859 5867 5869 5872 5876 5878 5882 5885 5888 5890 5893 5896 5898 5899 5901 5902 5903 5905 5906 5907 5907 5907 5907 5907 5907 5907 5905 5905 5904 5903 5902 5901 5900 5898 5897 5896 5896 5894 5892 5890 5888 5886
5851 5854 5858 5868 5864 5869 5874 5876 5879 5882 5884 5886 5889 5892 5894 5896 5896 5897 5899 5901 5901 5901 5902 5901 5900 5900 5900 5900 5899 5897 5895 5895 5894 5893 5891 5889 5887 5886 5886 5885 5883 5881 5879
5841 5845 5847 5844 5854 5859 5863 5868 5871 5876 5877 5878 5882 5884 5888 5891 5891 5892 5893 5894 5894 5894 5895 5895 5894 5894 5894 5892 5891 5890 5889 5887 5886 5885 5884 5881 5879 5878 5876 5875 5873 5871 5871
5836 5835 5834 5830 5841 5848 5854 5857 5862 5868 5870 5872 5874 5877 5879 5883 5885 5886 5887 5888 5888 5888 5888 5888 5888 5887 5885 5884 5883 5881 5881 5880 5879 5877 5875 5873 5871 5869 5867 5865 5864 5862 5861
5824 5823 5823 5826 5829 5839 5845 5850 5855 5857 5862 5866 5869 5870 5872 5874 5876 5879 5881 5880 5880 5880 5880 5879 5879 5878 5877 5876 5874 5872 5871 5871 5870 5867 5864 5863 5861 5859 5857 5855 5853 5852 5852
5815 5815 5814 5819 5824 5828 5830 5839 5846 5849 5853 5857 5861 5863 5865 5867 5868 5870 5872 5872 5872 5872 5871 5870 5870 5869 5868 5868 5866 5864 5863 5861 5859 5856 5854 5852 5850 5848 5846 5844 5842 5840 5838
5804 5804 5808 5810 5813 5817 5821 5828 5835 5838 5843 5848 5851 5854 5856 5858 5860 5861 5863 5863 5862 5862 5862 5861 5860 5859 5858 5858 5856 5854 5853 5852 5849 5847 5844 5842 5839 5836 5835 5833 5830 5826 5824
5793 5794 5796 5798 5802 5808 5813 5817 5822 5826 5830 5837 5841 5844 5848 5849 5850 5850 5852 5852 5852 5852 5850 5849 5849 5848 5847 5845 5844 5842 5839 5838 5836 5834 5833 5830 5827 5824 5822 5820 5817 5815 5812
5782 5784 5783 5787 5792 5797 5800 5803 5808 5812 5816 5825 5830 5834 5836 5839 5840 5841 5843 5842 5840 5842 5839 5837 5838 5837 5836 5834 5832 5831 5829 5828 5825 5822 5821 5820 5818 5815 5811 5808 5807 5804 5802
5772 5772 5774 5778 5779 5786 5789 5791 5794 5802 5809 5813 5818 5823 5827 5829 5829 5831 5832 5832 5832 5831 5829 5827 5826 5824 5825 5823 5822 5821 5819 5818 5816 5814 5812 5810 5809 5805 5802 5798 5796 5791 5788
5768 5768 5769 5770 5774 5776 5780 5784 5790 5796 5799 5806 5809 5805 5812 5815 5817 5815 5817 5820 5820 5819 5820 5818 5817 5816 5814 5813 5812 5811 5810 5808 5807 5806 5803 5800 5797 5793 5790 5786 5783 5780 5775
5765 5763 5766 5769 5770 5771 5776 5780 5781 5786 5790 5796 5798 5800 5802 5802 5806 5808 5807 5808 5807 5808 5810 5809 5809 5809 5808 5807 5806 5805 5803 5801 5799 5796 5793 5790 5786 5782 5779 5774 5769 5764 5760
5764 5764 5764 5764 5766 5769 5771 5772 5774 5779 5783 5787 5789 5791 5791 5792 5795 5796 5797 5799 5800 5802 5803 5805 5805 5804 5804 5803 5801 5799 5797 5794 5791 5787 5784 5779 5774 5770 5764 5758 5752 5746 5741
5763 5762 5764 5763 5765 5767 5771 5769 5771 5773 5776 5779 5780 5782 5784 5786 5790 5792 5795 5798 5799 5800 5801 5802 5801 5800 5798 5796 5794 5791 5788 5785 5781 5776 5771 5766 5760 5754 5748 5741 5733 5726 5719
5761 5761 5763 5763 5764 5765 5766 5769 5772 5774 5775 5779 5781 5784 5788 5790 5792 5793 5796 5798 5798 5798 5798 5798 5796 5793 5792 5789 5786 5782 5778 5774 5770 5765 5759 5753 5746 5739 5731 5723 5715 5707 5700
5762 5761 5763 5765 5765 5767 5769 5770 5773 5775 5777 5779 5781 5783 5786 5789 5791 5792 5793 5794 5794 5793 5793 5791 5789 5787 5784 5781 5777 5773 5769 5764 5759 5752 5746 5739 5731 5722 5713 5704 5698 5691 5684
5762 5764 5767 5768 5768 5769 5770 5771 5771 5774 5777 5779 5781 5782 5783 5784 5786 5788 5789 5789 5788 5787 5785 5784 5781 5779 5775 5771 5767 5762 5758 5752 5745 5737 5730 5722 5713 5705 5698 5690 5682 5674 5666
5762 5763 5765 5768 5769 5769 5770 5770 5771 5773 5775 5777 5779 5780 5781 5782 5783 5784 5784 5783 5782 5780 5778 5776 5772 5769 5766 5761 5757 5750 5744 5737 5730 5722 5716 5708 5699 5692 5685 5677 5670 5661 5652
5759 5760 5760 5763 5766 5767 5769 5770 5772 5773 5774 5775 5776 5777 5778 5779 5779 5778 5777 5776 5774 5772 5768 5766 5764 5760 5756 5750 5744 5738 5732 5723 5716 5709 5702 5695 5688 5680 5672 5665 5657 5651 5643
5754 5755 5757 5760 5762 5764 5766 5768 5770 5771 5771 5771 5772 5774 5774 5773 5773 5772 5770 5769 5767 5764 5761 5757 5753 5750 5744 5738 5732 5725 5717 5710 5703 5696 5689 5681 5674 5667 5660 5652 5646 5640 5633
5751 5754 5755 5757 5759 5762 5764 5765 5767 5767 5768 5768 5768 5768 5767 5767 5767 5767 5765 5763 5759 5755 5751 5746 5743 5738 5732 5725 5718 5713 5706 5698 5691 5683 5676 5668 5661 5655 5648 5641 5635 5631 5625
5752 5753 5754 5756 5758 5760 5762 5764 5765 5765 5765 5765 5764 5763 5764 5763 5762 5760 5757 5753 5750 5746 5740 5735 5729 5724 5718 5712 5706 5700 5693 5685 5678 5671 5665 5659 5651 5644 5638 5631 5626 5621 5616
5749 5751 5752 5754 5756 5757 5758 5760 5761 5761 5761 5760 5760 5759 5758 5755 5753 5750 5746 5743 5739 5733 5728 5723 5718 5711 5705 5700 5693 5686 5679 5672 5666 5662 5655 5649 5643 5636 5631 5624 5618 5612 5607
Wind_Speed
25 24 23 24 22 21 21 20 20 20 20 20 19 17 18 17 16 16 16 15 16 15 17 19 22 20 14 12 12 12 12 14 14 14 14 15 15 18 20 18 19 22 19
30 29 28 27 27 26 26 25 24 23 22 21 20 20 19 19 18 18 17 17 17 18 21 22 21 21 20 18 15 15 16 17 16 16 16 18 20 20 20 20 23 23 22
32 31 32 30 30 30 30 30 26 25 24 23 23 24 22 20 19 21 21 21 21 22 22 22 21 22 23 20 19 18 19 21 21 22 23 21 22 24 24 24 23 25 25
38 39 38 33 33 36 35 35 33 31 30 28 27 26 25 24 25 24 24 22 23 24 23 23 26 24 24 24 23 24 24 24 26 27 28 29 30 28 28 28 29 28 27
43 42 37 44 37 35 36 37 36 34 32 31 29 28 27 26 26 24 24 23 25 25 26 26 23 25 27 28 27 28 28 27 29 29 31 33 32 31 31 30 30 30 30
34 28 43 49 48 41 40 39 38 37 36 35 31 29 29 29 28 27 27 28 28 27 28 28 28 29 30 31 31 32 31 30 30 31 31 33 33 34 35 35 33 32 32
33 34 33 54 49 45 44 43 41 39 40 37 33 32 30 29 31 30 30 30 30 31 30 28 27 30 30 32 32 34 33 35 37 39 40 40 40 40 41 42 40 36 32
32 36 34 43 44 48 47 45 44 41 42 40 36 33 30 30 31 32 31 31 30 30 30 34 34 33 34 35 34 35 38 40 41 44 44 42 45 44 42 45 45 43 43
32 31 33 35 33 45 51 47 48 43 44 40 38 36 33 32 32 32 31 31 33 33 36 37 39 39 39 41 40 41 40 41 42 43 45 46 44 44 45 45 45 48 49
36 39 38 33 38 42 45 54 50 44 44 44 42 40 36 33 33 32 35 38 37 41 42 43 42 44 43 42 43 46 45 43 42 41 40 41 40 41 43 44 46 48 50
35 36 38 44 34 39 38 47 53 56 46 46 42 41 37 36 37 35 37 41 41 44 43 46 49 47 45 44 49 48 47 46 43 39 39 39 41 44 44 43 44 46 47
28 29 33 37 31 30 32 32 36 54 50 44 42 43 41 41 41 38 39 41 47 46 41 35 34 39 40 41 42 41 39 38 38 35 32 33 36 41 41 41 44 46 46
26 22 22 24 32 36 38 28 35 44 42 43 52 50 45 43 49 49 44 41 33 25 32 36 39 41 38 30 32 31 25 22 25 29 29 31 32 35 36 43 47 47 51
19 16 24 27 32 33 28 34 36 42 35 42 41 37 41 46 40 41 45 44 37 33 41 43 43 35 26 23 23 26 30 32 31 32 33 35 38 42 43 44 45 48 48
9 13 18 20 38 39 42 38 44 48 45 43 45 51 55 52 50 40 35 27 23 15 6 11 18 22 23 23 23 24 25 27 30 32 34 37 40 43 46 49 51 53 56
2 3 1 9 16 22 33 35 40 45 44 43 53 51 44 39 36 18 5 4 8 10 13 14 15 16 18 21 24 27 30 32 33 36 43 48 51 54 55 57 59 61 64
5 9 10 5 4 2 10 12 20 26 23 18 11 10 7 3 4 6 6 9 13 13 12 13 17 19 19 21 25 29 33 37 42 46 50 54 55 56 58 62 65 67 67
14 10 10 11 11 11 11 8 6 6 6 5 6 4 3 5 10 11 11 11 11 13 15 15 17 18 23 28 31 34 37 41 46 49 52 55 58 61 63 65 66 65 65
5 8 11 10 9 8 7 7 5 5 6 7 9 8 8 9 10 11 13 14 14 13 16 19 21 24 28 30 33 36 40 44 47 51 53 55 62 64 63 62 62 62 62
7 9 10 10 13 14 14 14 13 13 13 12 10 9 10 11 13 14 13 14 17 18 20 23 26 30 32 35 39 43 46 50 53 54 55 54 53 55 56 56 57 59 61
8 12 13 15 15 14 13 13 13 14 13 11 10 11 12 14 13 13 16 18 20 23 26 28 31 35 36 40 43 45 48 52 52 52 53 51 50 50 51 52 54 52 55
14 15 14 13 12 13 16 16 14 12 11 10 12 12 12 12 15 17 19 22 25 27 29 31 35 36 39 44 49 53 55 54 52 50 48 48 48 47 47 47 43 41 37
15 14 13 13 13 12 11 10 10 10 10 9 9 10 12 13 17 20 23 27 30 33 34 36 38 41 45 50 53 51 49 49 49 48 47 47 46 45 45 41 38 38 37
13 14 15 14 13 13 12 11 10 9 8 7 6 7 10 13 18 21 25 30 34 37 40 41 42 45 47 48 48 47 46 46 47 45 44 45 45 43 41 39 38 36 38
10 11 12 13 13 13 13 11 10 8 6 6 8 11 15 20 23 27 29 31 33 35 36 37 39 42 45 44 45 46 45 44 43 42 42 42 43 42 40 37 38 37 41
10 11 13 14 14 13 12 12 12 11 11 13 15 19 24 28 31 33 35 37 36 35 37 38 40 43 43 44 44 43 44 41 39 39 40 40 41 42 38 35 34 34 35
Wind_Direction
226 224 214 215 215 209 209 207 208 210 218 220 219 218 227 234 239 247 247 244 251 263 272 275 282 287 285 281 281 278 287 296 300 297 296 294 296 296 299 298 292 297 297
224 229 223 221 219 220 215 217 214 219 222 223 226 226 227 229 235 244 248 251 259 269 273 277 283 287 292 297 285 280 288 290 289 292 289 289 299 298 293 295 293 304 294
240 228 228 223 227 223 223 224 224 226 229 231 231 233 230 235 242 247 250 254 264 268 273 275 274 277 283 288 286 284 285 289 291 290 288 286 287 289 293 293 291 289 287
228 232 233 229 228 231 227 228 227 225 226 230 232 236 238 237 240 243 250 255 259 267 272 277 273 273 273 277 281 281 282 285 288 291 291 290 288 288 286 288 289 288 287
234 242 235 229 233 233 239 238 235 229 227 226 232 239 243 243 246 251 255 258 261 264 272 270 275 276 277 278 281 280 284 288 291 289 292 286 287 286 286 285 286 283 284
244 259 233 232 233 230 231 237 239 239 235 234 231 235 244 247 247 253 258 262 265 269 272 274 277 279 280 283 283 286 283 281 294 297 292 288 286 286 286 288 284 276 275
260 266 257 231 225 232 232 233 235 240 243 239 237 238 240 241 251 251 254 259 264 268 271 272 275 283 287 288 289 291 288 284 297 296 297 288 294 294 290 289 286 281 276
258 270 262 258 222 231 238 235 236 233 241 247 244 244 243 244 250 256 260 264 265 263 270 274 279 281 282 284 284 290 288 290 292 296 291 294 294 295 296 293 292 291 292
257 265 255 251 251 236 245 241 237 236 240 241 244 242 244 247 252 259 261 264 269 270 271 272 274 274 277 282 284 287 289 286 285 289 286 288 289 288 288 289 290 291 290
258 266 257 263 250 247 241 236 233 239 241 242 243 242 242 246 252 255 258 258 256 260 270 272 274 276 281 280 282 283 280 288 289 292 286 287 284 281 284 285 286 288 288
262 261 256 262 251 244 240 238 239 237 233 238 239 245 248 244 250 249 249 252 255 264 268 269 278 278 278 276 280 281 276 279 284 285 284 287 288 288 287 287 287 286 285
263 265 250 249 238 246 242 253 243 239 229 233 236 239 242 247 246 248 263 281 255 260 277 279 276 274 281 281 282 283 282 279 279 281 284 288 294 293 290 287 283 282 278
274 243 224 232 242 238 234 251 233 220 225 229 235 238 245 249 256 252 260 276 270 244 244 243 256 264 266 267 269 274 283 302 318 313 311 307 298 298 297 287 289 281 277
242 231 221 226 226 225 219 233 231 216 226 209 221 221 233 247 247 254 254 256 266 247 247 254 260 259 263 272 306 318 322 321 314 307 301 297 295 296 297 297 295 293 289
333 248 229 204 214 218 224 231 220 216 219 228 243 234 236 238 244 235 238 224 224 233 299 299 321 328 329 320 310 301 297 295 295 298 300 302 303 302 301 299 296 294 290
51 41 177 219 219 226 217 220 220 226 230 230 232 232 233 219 215 200 186 4 345 330 316 305 301 298 295 297 301 301 300 299 298 298 300 302 303 301 298 296 293 292 291
206 223 256 179 204 215 230 179 195 168 164 165 146 131 144 97 21 349 318 272 266 265 264 273 287 293 301 308 309 309 307 304 302 301 302 302 302 300 299 298 297 295 294
127 157 177 162 143 125 105 110 130 88 73 51 33 12 310 243 240 242 243 242 253 264 276 285 295 302 306 310 312 311 309 308 309 311 309 305 301 302 302 300 296 294 295
131 136 138 141 139 141 152 166 203 209 216 221 220 226 215 205 213 230 242 258 268 281 292 295 296 301 306 307 309 309 310 313 312 315 315 313 314 309 304 300 298 299 299
191 181 188 200 200 202 202 207 212 224 234 230 215 198 206 225 244 258 267 276 284 286 293 294 296 299 302 305 307 309 311 317 317 318 317 315 311 305 303 303 304 304 304
203 209 213 214 217 221 232 229 208 200 200 202 214 228 247 260 268 271 279 281 282 285 290 293 298 304 303 304 309 313 317 318 316 317 316 314 311 305 303 303 304 307 311
217 217 221 223 234 199 191 194 197 202 212 223 235 242 251 264 277 285 287 289 295 298 298 297 298 301 307 311 313 315 316 317 316 314 312 310 308 304 303 305 308 314 326
220 230 235 211 190 205 213 216 223 227 230 235 247 258 268 279 289 295 298 297 294 292 289 294 300 305 309 312 313 315 315 316 315 313 311 310 308 306 308 307 304 311 316
222 191 189 191 205 216 224 226 227 230 240 249 276 304 316 315 311 305 301 296 295 293 293 296 302 306 309 313 315 314 313 314 314 312 311 313 313 310 309 307 303 304 306
190 211 219 213 211 215 220 217 212 216 248 285 304 310 311 312 310 309 309 307 303 300 300 302 307 311 314 314 312 312 313 313 313 312 313 314 317 316 314 311 306 301 302
242 230 224 219 221 219 224 232 245 258 272 286 295 302 308 312 309 307 308 306 306 306 305 307 311 314 313 311 312 313 313 313 313 313 311 313 317 317 315 314 311 310 310